Location: Austin
(30.3000°N, 97.7500°W)
Time: 02:15:47
(UTC-05:00)

Meteor 2-12 Rocket - Pass Details

Date: 01 October 2024
Orbit: 936 x 956 km, 82.5° (Epoch: 06 October)

Event Time Altitude Azimuth Distance (km) Brightness Sun altitude
Rises 20:19:56 0° 353° (N) 3,635 7.6 -14.7°
Reaches altitude 10° 20:22:27 10° 354° (N) 2,684 6.9 -15.3°
Maximum altitude 20:28:36 90° 289° (WNW) 955 4.4 -16.6°
Drops below altitude 10° 20:34:42 10° 176° (S) 2,659 6.7 -17.9°
Sets 20:37:10 0° 176° (S) 3,598 7.4 -18.4°
